Location: 81360 Arifat, France
(43.7204°N, 2.3408°E)
Time: 14:48:33
(UTC+02:00)

GHALIB - Visible Passes

Search period start: 29 May 2022 00:00
Search period end: 08 June 2022 00:00
Orbit: 511 x 524 km, 97.5° (Epoch: 28 May)

Date Brightness Start Highest point End Pass type
(mag) Time Alt. Az. Time Alt. Az. Time Alt. Az.
29 May ? 02:42:11 20° E 02:43:26 24° ENE 02:46:31 10° NNE visible
29 May ? 04:17:13 25° W 04:17:26 25° W 04:20:37 10° NW visible
30 May ? 02:27:46 14° E 02:29:20 17° ENE 02:31:51 10° NNE visible
30 May ? 04:02:49 35° WSW 04:03:09 36° W 04:06:41 10° NNW visible
31 May ? 02:13:42 10° E 02:15:15 12° ENE 02:16:49 10° NE visible
31 May ? 03:48:24 50° SW 03:48:53 55° W 03:52:37 10° NNW visible
01 Jun ? 03:33:58 59° S 03:34:37 84° WSW 03:38:26 10° NNW visible
02 Jun ? 03:19:32 47° SE 03:20:23 64° ENE 03:24:09 10° N visible
03 Jun ? 03:05:05 33° ESE 03:06:09 42° ENE 03:09:46 10° N visible
03 Jun ? 04:40:07 14° W 04:40:27 14° W 04:42:30 10° WNW visible
04 Jun ? 02:50:37 23° ESE 02:51:58 29° ENE 02:55:15 10° N visible
04 Jun ? 04:25:39 20° WSW 04:26:03 20° W 04:28:55 10° NW visible
05 Jun ? 02:36:08 16° E 02:37:45 21° ENE 02:40:36 10° NNE visible
05 Jun ? 04:11:11 28° WSW 04:11:40 29° W 04:15:00 10° NW visible
06 Jun ? 02:21:39 11° E 02:23:34 15° ENE 02:25:43 10° NNE visible
06 Jun ? 03:56:41 39° SW 03:57:18 43° W 04:00:55 10° NNW visible
07 Jun ? 02:08:44 10° ENE 02:09:24 10° ENE 02:10:05 10° NE visible
07 Jun ? 03:42:11 51° SSW 03:42:56 66° WSW 03:46:43 10° NNW visible
